Temperature
15 15 15 15 16 16 16 17 17 17 17 17 18 18 18 18 18 18 18 18 18 18 18 18 18 18 18 18 18 18 18 18 18 18 18 18 18 18 18 18 17 17 17
14 15 15 15 15 15 16 16 16 17 17 17 17 17 18 18 18 18 18 18 18 18 18 18 18 18 18 18 18 18 18 18 18 18 18 18 18 17 17 17 17 17 17
14 14 15 15 15 15 15 16 16 16 17 17 17 17 17 18 18 18 18 18 18 18 18 18 18 18 18 18 18 18 18 18 18 18 18 18 17 17 17 17 17 17 17
14 14 14 14 14 15 15 15 16 16 16 16 17 17 17 17 17 18 18 18 18 18 18 18 18 18 18 18 18 18 18 18 18 18 18 18 17 17 17 17 17 17 17
14 14 14 14 14 14 15 15 15 15 16 16 16 17 17 17 17 17 17 17 18 18 18 18 18 18 18 18 18 18 18 18 18 18 18 17 17 17 17 17 17 17 17
13 13 13 14 14 14 14 14 15 15 15 16 16 16 17 17 17 17 17 17 17 18 18 18 18 18 18 18 18 18 18 18 17 17 17 17 17 17 17 17 17 17 17
13 13 13 13 13 14 14 14 14 15 15 15 15 16 16 17 17 17 17 17 17 17 17 18 17 18 18 17 17 17 17 17 17 17 17 17 17 17 17 17 17 17 17
13 13 13 13 13 13 14 14 14 14 15 15 15 15 16 16 17 17 17 17 17 17 17 17 17 17 17 18 17 17 17 17 17 17 17 17 17 17 17 17 17 17 17
13 13 13 13 13 13 13 14 14 14 14 14 15 15 15 16 16 17 17 17 17 17 17 17 17 17 17 17 17 17 17 17 17 17 17 17 17 17 17 17 17 17 16
13 13 13 13 13 13 13 13 13 14 14 14 14 15 15 15 16 16 16 16 17 17 17 17 17 17 17 17 17 17 17 17 17 17 17 17 17 17 17 17 17 16 16
13 12 12 13 13 13 13 13 13 13 14 14 14 14 15 15 15 15 15 16 16 16 16 16 17 17 17 17 17 17 17 17 17 17 17 17 17 17 17 17 17 16 16
12 12 12 12 12 13 13 13 13 13 13 14 14 14 14 14 15 15 15 15 16 16 16 16 16 16 16 16 17 17 17 17 17 17 17 17 17 17 17 17 16 16 16
12 12 12 12 12 12 13 13 13 13 13 13 14 14 14 14 14 14 15 15 15 15 16 16 16 16 16 16 16 16 16 16 16 16 16 16 16 16 16 16 16 16 16
12 12 12 12 12 12 13 13 13 13 13 13 13 13 14 14 14 14 14 14 14 15 15 15 16 16 16 16 16 16 16 16 16 16 16 16 16 16 16 16 16 16 16
12 12 12 12 12 12 12 12 13 13 13 13 13 13 13 14 14 14 14 14 14 14 14 15 15 15 15 15 16 16 16 16 16 16 16 16 16 16 16 16 16 16 16
12 12 12 12 12 12 12 12 12 13 13 13 13 13 13 13 13 13 14 14 14 14 14 14 15 15 15 15 15 15 15 15 15 15 15 15 15 15 15 15 15 15 15
12 12 12 12 12 12 12 12 12 12 13 13 13 13 13 13 13 13 13 14 14 14 14 14 14 14 15 15 15 15 15 15 15 15 15 15 15 15 15 15 15 15 15
12 12 12 12 12 12 12 12 12 12 12 13 13 13 13 13 13 13 13 13 13 14 14 14 14 14 14 14 14 14 14 15 15 15 15 15 15 15 15 15 15 15 15
12 12 12 12 12 12 12 12 12 12 12 12 13 13 13 13 13 13 13 13 13 13 13 13 14 14 14 14 14 14 14 14 14 14 14 14 14 14 14 14 14 14 14
13 12 12 12 12 12 12 12 12 12 12 12 12 13 13 13 13 13 13 13 13 13 13 13 13 13 13 13 13 13 14 14 14 14 14 14 14 14 14 14 14 14 14
13 12 12 12 12 12 12 12 12 12 12 12 13 12 12 12 13 13 13 13 13 13 13 13 13 13 13 13 13 13 13 13 13 13 13 14 14 13 13 14 14 14 14
13 13 12 12 12 12 12 12 12 12 12 12 12 12 12 12 12 12 12 12 13 13 13 13 13 13 13 13 13 13 13 13 13 13 13 13 13 13 13 13 13 13 13
13 13 13 12 12 12 12 12 12 12 12 12 12 12 12 12 12 12 12 12 12 12 12 13 13 13 13 13 13 13 13 13 13 13 13 13 13 13 13 13 13 13 13
13 13 13 13 12 12 12 12 12 12 12 12 12 12 12 12 12 12 12 12 12 12 12 12 13 13 13 13 13 13 13 13 13 13 12 12 12 12 12 12 12 13 13
13 13 13 13 13 12 12 12 12 12 12 12 12 12 12 12 12 12 12 12 12 12 12 12 12 12 12 12 12 12 12 12 12 12 12 12 12 12 12 12 12 12 12
13 13 13 13 13 13 12 12 12 12 12 12 12 12 12 12 12 12 12 12 12 12 12 12 12 12 12 12 12 12 12 12 12 12 12 12 12 12 12 12 12 12 11
Wind_Speed
3 3 2 3 3 4 3 2 3 4 4 4 5 4 4 5 6 8 10 16 19 18 17 16 15 14 13 13 13 12 12 12 12 12 11 11 11 11 11 10 10 10 10
1 2 3 3 2 3 3 2 3 3 4 3 4 4 4 5 6 7 9 13 18 19 18 17 16 15 15 14 13 13 13 12 12 12 12 12 11 11 11 10 10 10 10
2 1 2 3 3 4 3 2 2 2 3 3 4 4 4 4 5 6 8 10 12 17 18 17 17 16 16 15 14 14 14 13 13 12 12 12 11 11 11 10 10 10 9
3 1 2 3 3 3 2 2 1 2 2 2 2 3 3 2 3 5 6 7 9 10 14 17 17 17 17 17 16 15 14 14 13 13 13 12 12 11 11 10 10 10 9
3 2 2 3 3 2 2 2 1 1 2 2 2 2 2 2 2 3 4 5 7 7 9 14 16 17 18 17 17 16 15 15 14 13 13 12 12 12 11 10 10 10 9
4 2 2 3 2 1 2 2 2 2 2 2 3 2 2 2 3 4 5 4 5 7 8 9 11 14 17 18 18 18 17 16 15 14 14 13 12 12 12 11 11 10 10
3 2 2 3 2 1 2 2 1 2 2 1 0 1 2 2 3 3 4 4 5 6 7 8 9 10 12 17 18 18 18 17 17 16 15 14 13 12 12 12 11 11 11
4 2 2 2 2 2 2 1 0 0 1 1 1 1 1 2 1 2 3 4 5 4 5 8 9 10 10 11 14 18 19 18 18 17 16 15 14 14 13 12 12 11 11
4 3 2 2 2 1 2 2 1 2 1 1 1 2 2 3 1 1 2 3 3 4 4 4 7 9 11 10 12 15 18 19 19 18 18 17 16 15 14 13 13 12 11
4 3 2 2 2 1 2 2 1 1 2 1 1 1 2 2 2 1 1 1 3 3 4 5 5 7 10 10 11 14 17 18 19 19 18 17 16 15 15 14 13 13 12
4 4 2 2 2 2 2 2 1 1 2 2 2 1 0 0 1 2 1 1 1 1 2 4 4 5 9 10 11 13 15 17 18 19 18 17 17 16 15 15 14 13 13
4 5 3 3 2 2 2 2 2 2 2 2 2 2 2 1 2 2 2 1 2 2 2 2 3 4 6 9 12 13 14 15 16 17 17 17 17 16 16 16 15 15 14
3 5 4 3 3 3 2 2 1 1 2 2 2 2 2 2 2 2 2 2 1 1 1 2 3 3 5 8 10 12 14 16 16 16 16 16 17 17 16 16 16 15 14
3 4 4 4 4 3 3 2 1 1 1 2 2 2 2 2 3 3 3 3 1 1 1 2 1 3 3 5 8 11 11 15 16 16 16 15 16 16 16 16 15 15 14
3 4 4 4 4 3 3 2 1 1 0 1 2 2 2 2 2 2 3 3 4 2 2 2 2 2 2 4 7 9 10 13 15 15 15 15 14 15 16 16 16 15 14
4 4 4 4 4 3 3 2 1 1 1 1 1 1 1 1 1 2 2 2 3 4 3 2 3 2 3 3 6 8 9 11 13 14 14 15 15 15 15 15 14 14 13
4 4 4 4 4 3 3 2 1 1 1 1 1 0 1 1 1 1 1 2 2 3 3 2 1 2 2 3 3 4 6 6 8 12 14 14 15 14 14 14 13 13 13
4 4 4 4 4 3 2 2 1 2 1 1 1 1 1 0 1 1 1 2 2 3 3 3 1 1 2 3 4 4 4 5 6 9 12 13 14 14 14 13 13 13 13
4 5 4 4 4 3 2 2 1 1 1 1 1 1 1 1 1 1 1 1 2 2 2 3 2 1 1 2 3 2 3 2 4 7 10 11 12 13 13 13 13 13 13
4 4 4 4 4 3 2 2 2 2 1 1 1 1 1 2 2 2 1 2 2 2 2 2 2 2 1 1 3 3 2 2 2 3 5 7 9 10 12 12 13 13 13
4 4 4 5 5 3 3 2 1 1 2 2 2 2 2 2 3 3 2 2 2 2 2 2 3 2 2 2 3 3 3 2 2 2 3 3 4 5 6 10 12 12 13
4 4 4 4 5 4 5 4 1 1 1 1 2 2 2 2 3 3 3 3 4 4 4 3 3 4 4 3 3 3 3 3 3 3 4 3 4 4 5 6 10 12 13
3 4 4 4 4 6 7 6 4 1 1 1 1 1 2 2 2 1 3 3 4 5 6 5 5 5 5 5 5 5 5 5 4 4 4 3 4 5 4 7 10 12 12
2 3 3 4 4 5 7 6 5 2 2 2 1 1 1 2 2 2 1 1 2 3 4 4 6 6 6 5 6 6 5 3 1 2 3 3 3 3 3 5 10 11 12
3 3 3 3 3 5 6 5 3 2 2 3 3 2 1 2 4 2 0 1 2 3 3 5 6 7 7 7 6 4 5 4 3 3 3 3 3 3 2 3 7 11 12
3 3 3 3 3 4 6 4 2 1 1 2 3 3 4 3 3 2 1 1 2 3 2 2 2 2 3 4 6 6 6 6 3 3 4 4 3 3 2 2 3 6 8
Wind_Direction
310 303 291 278 274 270 254 244 237 233 232 230 234 232 230 229 233 225 218 214 203 194 187 182 178 177 174 171 168 165 161 158 157 154 153 152 151 148 146 145 144 143 141
310 313 310 295 279 268 260 242 239 238 234 227 238 238 235 227 230 221 209 210 203 195 190 185 182 181 178 176 174 172 168 166 164 161 160 159 157 155 151 148 149 149 148
334 304 304 303 287 283 273 262 260 249 243 233 236 242 241 222 211 204 202 200 201 200 194 189 186 184 183 181 179 177 175 173 171 168 166 165 163 160 159 157 157 157 156
329 323 308 291 294 301 284 267 253 257 254 243 242 254 251 219 196 193 191 194 196 199 200 196 192 190 187 186 184 182 180 178 176 173 172 170 170 170 170 170 169 168 166
318 318 299 290 307 305 287 274 255 237 250 250 240 241 236 208 191 185 180 189 194 193 197 201 198 196 193 191 190 188 186 184 182 181 178 176 176 178 178 179 178 177 176
312 316 290 298 307 319 305 287 260 254 242 243 257 263 249 215 188 184 186 188 195 198 198 199 197 201 201 198 196 194 192 190 189 188 186 183 181 181 184 185 184 184 183
313 296 296 301 303 284 278 277 249 248 252 194 159 313 307 255 207 194 182 181 197 203 199 201 196 195 202 204 201 199 198 196 195 194 192 191 189 187 188 190 190 189 189
316 304 293 289 285 277 297 293 237 225 250 170 155 134 320 327 298 206 178 189 198 193 195 201 198 195 198 200 203 203 202 200 199 198 197 196 195 193 194 195 194 195 194
322 310 304 301 293 254 264 262 223 177 228 261 183 166 173 224 276 297 199 193 187 191 195 195 198 197 196 197 202 207 206 204 203 203 201 200 200 199 199 199 199 200 199
327 322 323 324 307 282 263 264 222 187 176 208 279 219 197 185 177 295 306 213 191 192 196 204 199 196 199 197 203 206 207 208 208 207 205 204 202 201 199 199 201 201 203
338 339 331 336 328 305 274 271 274 210 184 187 195 210 215 166 164 175 249 278 254 222 207 206 197 192 200 199 202 209 210 210 211 209 209 207 204 203 202 203 203 203 204
330 332 329 333 322 312 291 272 258 227 209 196 196 193 189 187 193 169 195 233 244 246 221 206 198 198 198 197 202 204 204 208 209 209 209 209 207 205 205 205 205 206 208
319 314 324 323 313 307 302 285 257 242 215 200 211 216 214 211 194 175 171 191 226 259 238 223 208 196 197 194 200 203 204 205 206 207 208 209 207 206 206 208 208 208 208
297 308 320 323 321 318 318 313 278 254 214 206 224 221 216 222 200 189 178 167 176 258 247 237 224 207 194 189 194 198 204 205 206 205 207 208 209 207 205 207 208 209 211
315 333 336 335 336 337 335 340 323 284 243 208 227 227 224 223 212 203 186 173 168 196 236 232 221 217 198 194 194 193 198 203 204 204 205 205 206 207 207 207 208 208 209
333 342 341 344 345 343 347 1 345 328 350 292 231 234 237 231 219 207 193 192 182 181 212 228 220 210 194 200 193 187 194 199 205 205 205 204 204 205 206 207 207 206 206
336 341 337 340 345 345 349 13 5 17 24 345 333 277 265 236 211 221 195 181 187 175 205 242 233 198 183 188 177 180 192 195 205 209 207 206 204 204 205 205 205 204 204
338 342 346 348 347 349 351 4 356 13 18 340 331 9 302 285 241 223 183 191 198 190 186 218 231 208 208 190 184 186 187 193 196 208 207 205 205 204 204 205 205 204 203
346 352 1 353 344 339 341 339 344 343 345 307 280 253 264 238 242 242 217 215 217 212 186 188 215 216 217 180 174 188 189 188 195 203 202 202 203 205 203 203 203 201 201
354 351 353 346 341 345 347 349 7 2 351 334 303 261 255 233 229 217 221 222 208 198 192 187 203 207 214 185 169 185 197 201 202 189 186 189 197 202 203 200 200 200 201
352 348 350 349 348 351 356 356 349 345 339 332 325 305 278 268 245 219 217 208 193 197 196 201 208 209 209 193 199 192 197 197 212 193 178 188 184 194 202 204 202 203 202
343 351 350 348 351 351 355 360 358 348 329 315 312 315 306 294 276 267 255 229 211 207 208 205 213 213 221 215 204 198 189 194 218 194 179 200 185 201 208 204 204 202 203
334 339 339 344 339 332 347 358 3 21 350 317 291 305 317 323 317 293 274 257 249 240 222 207 210 217 214 209 199 205 206 201 213 190 174 203 193 207 210 210 203 198 198
313 315 321 327 326 327 341 348 356 19 15 360 341 303 298 317 315 300 280 284 271 259 242 227 222 226 222 214 208 211 206 195 191 203 182 199 193 206 204 202 200 196 195
297 298 298 310 315 315 329 340 360 26 16 355 348 341 319 309 324 340 276 266 301 300 275 242 231 234 231 224 204 182 183 186 211 212 191 183 183 184 199 212 203 198 196
272 288 297 294 293 299 316 322 342 55 7 335 338 340 332 325 325 347 318 252 271 284 299 310 275 264 241 223 206 198 196 196 188 199 194 177 171 163 193 217 199 196 200
Height
1508 1507 1507 1507 1507 1508 1509 1509 1511 1512 1513 1515 1516 1517 1519 1520 1521 1523 1524 1525 1527 1528 1528 1529 1530 1531 1532 1533 1535 1536 1538 1540 1541 1542 1544 1545 1546 1547 1549 1550 1551 1552 1553
1505 1504 1504 1504 1504 1505 1505 1506 1507 1509 1510 1511 1513 1514 1516 1517 1518 1520 1522 1523 1525 1526 1527 1528 1529 1530 1531 1533 1534 1536 1537 1539 1540 1542 1543 1545 1546 1547 1548 1550 1551 1552 1553
1502 1501 1501 1501 1501 1501 1502 1503 1504 1505 1506 1508 1509 1511 1513 1514 1516 1517 1519 1521 1523 1524 1525 1527 1527 1529 1530 1532 1533 1535 1537 1538 1540 1541 1543 1544 1545 1547 1548 1549 1550 1552 1553
1499 1499 1498 1498 1498 1498 1499 1500 1501 1502 1503 1505 1506 1508 1509 1511 1513 1514 1516 1518 1520 1522 1524 1525 1526 1527 1529 1530 1532 1534 1536 1537 1539 1540 1542 1543 1544 1546 1547 1548 1550 1551 1552
1497 1496 1495 1495 1495 1495 1496 1497 1498 1499 1500 1501 1503 1505 1506 1508 1509 1511 1513 1516 1518 1520 1522 1523 1524 1526 1527 1529 1531 1533 1534 1536 1538 1539 1541 1542 1543 1545 1546 1547 1549 1550 1551
1495 1494 1493 1493 1492 1492 1493 1494 1495 1496 1496 1498 1500 1501 1503 1505 1506 1508 1510 1513 1515 1517 1519 1521 1522 1524 1525 1527 1529 1531 1533 1535 1536 1538 1540 1541 1542 1544 1545 1546 1547 1549 1550
1493 1492 1491 1490 1490 1490 1490 1491 1492 1493 1494 1495 1497 1498 1500 1502 1503 1505 1507 1510 1512 1514 1516 1518 1520 1521 1523 1525 1527 1529 1531 1533 1534 1536 1538 1539 1541 1542 1544 1545 1546 1547 1548
1491 1490 1489 1488 1488 1488 1488 1489 1490 1491 1492 1493 1494 1496 1497 1500 1500 1502 1504 1506 1509 1511 1513 1515 1517 1519 1520 1523 1524 1527 1529 1531 1532 1534 1536 1537 1539 1540 1542 1543 1544 1546 1547
1490 1488 1487 1487 1486 1486 1486 1487 1487 1488 1489 1491 1492 1494 1495 1496 1497 1499 1501 1503 1505 1507 1509 1512 1514 1516 1518 1520 1522 1524 1526 1528 1530 1532 1534 1535 1537 1538 1540 1541 1543 1544 1545
1489 1487 1486 1485 1484 1484 1484 1485 1486 1486 1487 1488 1490 1492 1494 1494 1496 1496 1498 1500 1502 1504 1506 1508 1510 1512 1514 1517 1519 1521 1523 1525 1527 1529 1531 1533 1534 1536 1537 1539 1540 1542 1543
1488 1486 1485 1483 1482 1482 1482 1483 1483 1484 1485 1486 1488 1489 1490 1492 1493 1494 1495 1497 1499 1501 1503 1505 1507 1509 1511 1513 1515 1518 1520 1522 1524 1526 1528 1530 1531 1533 1535 1536 1538 1539 1540
1487 1485 1483 1482 1481 1480 1480 1480 1481 1482 1483 1484 1485 1486 1488 1489 1490 1492 1493 1494 1496 1497 1499 1501 1503 1505 1507 1509 1512 1514 1516 1519 1521 1523 1525 1527 1528 1530 1532 1533 1535 1536 1538
1486 1484 1482 1481 1480 1479 1479 1479 1479 1480 1481 1482 1483 1484 1485 1487 1489 1490 1492 1493 1494 1495 1496 1498 1500 1502 1504 1506 1508 1510 1513 1515 1517 1519 1521 1523 1525 1527 1529 1530 1532 1533 1535
1486 1484 1482 1480 1479 1478 1477 1477 1477 1478 1479 1480 1481 1482 1483 1485 1486 1488 1490 1491 1491 1492 1493 1495 1497 1499 1500 1502 1504 1507 1509 1511 1513 1515 1517 1519 1521 1523 1525 1527 1528 1530 1531
1485 1483 1481 1479 1478 1477 1476 1475 1476 1476 1477 1478 1478 1480 1481 1482 1484 1485 1487 1488 1490 1490 1491 1492 1494 1495 1497 1499 1501 1503 1505 1507 1510 1511 1513 1515 1518 1520 1522 1523 1525 1527 1528
1485 1483 1481 1479 1478 1476 1475 1474 1474 1475 1475 1476 1477 1478 1479 1480 1481 1483 1484 1485 1487 1488 1488 1489 1491 1492 1494 1496 1498 1500 1502 1504 1506 1508 1510 1512 1514 1516 1518 1520 1521 1523 1524
1485 1483 1481 1479 1477 1475 1474 1474 1474 1474 1474 1474 1475 1476 1477 1478 1479 1480 1481 1482 1484 1485 1485 1487 1488 1489 1491 1493 1494 1496 1498 1500 1502 1504 1506 1508 1510 1512 1514 1515 1517 1518 1520
1485 1483 1481 1479 1477 1475 1474 1473 1473 1473 1473 1473 1474 1474 1475 1476 1477 1478 1479 1480 1481 1482 1483 1484 1485 1487 1488 1490 1491 1493 1495 1496 1498 1500 1502 1504 1506 1508 1509 1511 1513 1514 1516
1485 1483 1481 1478 1476 1474 1473 1472 1472 1472 1472 1472 1472 1473 1474 1475 1475 1476 1477 1478 1479 1480 1481 1481 1482 1484 1485 1487 1488 1490 1491 1493 1494 1496 1498 1499 1501 1503 1505 1506 1508 1510 1511
1485 1483 1481 1478 1476 1474 1473 1472 1472 1471 1471 1471 1471 1471 1472 1473 1473 1474 1475 1475 1476 1477 1478 1478 1479 1481 1482 1483 1485 1486 1488 1489 1490 1492 1493 1494 1496 1498 1500 1502 1504 1505 1507
1486 1483 1481 1478 1476 1474 1473 1472 1471 1471 1470 1470 1470 1470 1470 1471 1471 1472 1472 1473 1473 1474 1475 1475 1476 1477 1478 1480 1481 1482 1484 1485 1486 1488 1489 1490 1492 1493 1495 1497 1499 1500 1502
1487 1484 1482 1479 1477 1475 1474 1472 1471 1471 1470 1469 1469 1469 1469 1469 1469 1470 1470 1470 1471 1471 1472 1472 1473 1474 1474 1476 1478 1479 1480 1481 1482 1484 1485 1486 1488 1489 1490 1492 1494 1495 1497
1487 1485 1482 1480 1478 1476 1474 1473 1472 1471 1470 1469 1469 1468 1468 1468 1468 1467 1467 1468 1468 1468 1469 1470 1470 1470 1471 1473 1474 1475 1476 1477 1478 1479 1481 1482 1483 1484 1486 1488 1489 1491 1492
1487 1485 1483 1481 1479 1477 1475 1473 1472 1471 1470 1469 1468 1468 1467 1466 1466 1466 1466 1465 1465 1466 1466 1467 1467 1468 1469 1470 1470 1471 1472 1473 1474 1476 1477 1478 1479 1480 1482 1483 1484 1486 1487
1488 1486 1484 1482 1480 1477 1475 1474 1472 1471 1470 1469 1468 1467 1466 1465 1465 1465 1464 1463 1463 1463 1464 1464 1464 1465 1465 1466 1466 1467 1467 1469 1469 1471 1473 1474 1475 1476 1477 1478 1480 1482 1483
1487 1486 1484 1482 1480 1478 1476 1474 1473 1471 1470 1469 1468 1467 1466 1465 1464 1463 1462 1462 1461 1461 1461 1461 1462 1462 1462 1462 1462 1463 1463 1464 1465 1466 1468 1470 1470 1472 1473 1474 1476 1477 1479